Date,TemperatureHighF,TemperatureAvgF,TemperatureLowF,DewpointHighF,DewpointAvgF,DewpointLowF,HumidityHigh,HumidityAvg,HumidityLow,PressureMaxIn,PressureMinIn,WindSpeedMaxMPH,WindSpeedAvgMPH,GustSpeedMaxMPH,PrecipitationSumIn
2013-4-1,77,73,70,72,68,59,94,86,64,29.97,29.88,22,8,22,0.00
2013-4-2,74,72,70,70,68,64,97,88,71,30.03,29.94,15,4,15,0.00
2013-4-3,83,75,70,74,66,55,95,77,39,30.00,29.88,32,10,32,0.00
2013-4-4,76,74,72,74,70,56,96,86,52,29.97,29.80,34,9,34,0.39
2013-4-5,72,70,65,71,64,56,95,84,62,29.94,29.74,30,10,30,0.24
2013-4-6,70,66,60,66,54,44,87,68,43,30.03,29.94,28,10,28,0.00
2013-4-7,80,72,66,65,57,37,96,64,22,30.09,29.97,22,9,22,0.00
2013-4-8,84,75,71,68,56,36,81,55,19,30.06,29.94,26,8,26,0.00
2013-4-9,85,76,72,70,61,47,88,63,29,30.09,29.97,22,9,22,0.00
2013-4-10,84,77,72,69,61,49,87,59,31,30.03,29.88,22,8,22,0.00
2013-4-11,88,80,76,75,69,57,93,71,35,29.91,29.74,36,14,36,0.00
2013-4-12,81,79,76,79,76,72,96,90,84,29.85,29.71,45,13,45,0.08
2013-4-13,84,78,74,73,64,55,90,66,40,29.91,29.83,18,3,18,0.00
2013-4-14,87,78,71,76,68,55,90,72,45,29.94,29.80,30,7,30,0.04
2013-4-15,86,79,72,67,60,55,73,54,37,30.00,29.83,14,2,18,0.00
2013-4-16,94,82,75,73,64,49,94,57,23,30.06,29.94,18,5,18,0.00
2013-4-17,90,81,73,72,59,40,92,52,18,30.06,29.94,17,7,20,0.00
2013-4-18,90,81,75,73,63,51,87,57,29,29.97,29.85,22,6,22,0.00
2013-4-19,90,83,78,76,69,53,92,67,29,29.94,29.85,19,6,20,0.00
2013-4-20,80,72,65,77,63,53,90,74,50,30.06,29.91,26,6,26,0.00
2013-4-21,84,73,65,74,63,54,94,74,37,30.06,29.94,19,7,19,0.08
2013-4-22,86,76,0,73,66,52,98,76,33,30.00,29.91,22,6,22,0.08
2013-4-23,85,76,69,67,59,45,92,61,30,30.03,29.94,19,7,19,0.08
2013-4-24,87,76,68,68,57,30,89,57,13,30.06,30.00,18,6,18,0.00
2013-4-25,87,78,71,70,60,49,88,56,31,30.15,30.03,14,3,15,0.00
2013-4-26,87,79,74,68,61,54,79,55,35,30.18,30.06,18,4,18,0.00
2013-4-27,87,79,74,73,61,46,92,56,25,30.15,30.00,19,6,19,0.00
2013-4-28,88,79,73,64,57,38,73,49,18,30.03,29.88,19,6,19,0.00
2013-4-29,87,80,73,73,61,52,81,54,31,29.94,29.83,19,4,19,0.00
2013-4-30,89,81,72,75,65,52,96,64,29,29.91,29.83,16,5,17,0.08